W4TJP Weather Reports


time (UTC)temp
F
wind
direction
speed
knots
gust
knots
rain 1hr
in
rain 24hr
in
rain mn
in
humidity
%
barometer
mb
20260509022307 51 169 0.0 0.0 0.00 0.00 0.00 89 1012.3
20260509021803 51 169 0.0 0.0 0.00 0.00 0.00 89 1012.5
20260509021300 51 169 0.0 0.0 0.00 0.00 0.00 89 1012.3
20260509020758 51 169 0.0 0.0 0.00 0.00 0.00 89 1012.3
20260509020255 51 169 0.0 0.0 0.00 0.00 0.00 89 1012.1
20260509015753 51 169 0.0 0.0 0.00 0.00 0.00 89 1012.3
20260509015251 51 169 0.0 0.0 0.00 0.00 0.00 89 1012.3
20260509014747 51 169 0.0 0.0 0.00 0.00 0.00 87 1012.2
20260509014244 52 169 0.0 0.0 0.00 0.00 0.00 86 1012.0
20260509013741 52 169 0.0 0.0 0.00 0.00 0.00 85 1012.2
20260509013237 52 169 0.0 0.0 0.00 0.00 0.00 84 1012.2
20260509012733 52 169 0.0 0.0 0.00 0.00 0.00 82 1012.0
20260509012230 53 169 0.0 0.0 0.00 0.00 0.00 81 1012.0
20260509011727 53 169 0.0 0.0 0.00 0.00 0.00 80 1012.2
20260509011225 53 169 0.0 0.0 0.00 0.00 0.00 79 1012.1
20260509010723 54 169 0.0 0.0 0.00 0.00 0.00 78 1012.3
20260509010219 54 169 0.0 0.0 0.00 0.00 0.00 75 1012.2
20260509005716 55 169 0.0 0.0 0.00 0.00 0.00 74 1012.2
20260509005214 55 169 0.0 0.0 0.00 0.00 0.00 73 1012.4
20260509004708 56 169 0.0 0.0 0.00 0.00 0.00 71 1012.0
20260509004206 56 169 0.0 0.0 0.00 0.00 0.00 70 1012.0
20260509003704 57 169 0.0 0.0 0.00 0.00 0.00 69 1012.0
20260509003201 57 169 0.0 0.0 0.00 0.00 0.00 68 1012.3
20260509002658 58 169 0.0 0.0 0.00 0.00 0.00 69 1011.8
20260509002155 58 169 0.0 0.0 0.00 0.00 0.00 64 1012.1
20260509001653 58 169 0.0 0.0 0.00 0.00 0.00 65 1012.1
20260509001148 59 169 0.0 0.0 0.00 0.00 0.00 61 1012.0
20260509000647 60 169 0.0 0.0 0.00 0.00 0.00 65 1012.1
20260509000144 60 169 0.0 0.0 0.00 0.00 0.00 64 1012.1
20260508235641 61 169 0.0 0.0 0.00 0.00 0.00 64 1011.9
20260508235137 61 169 0.0 0.0 0.00 0.00 0.00 59 1012.1
20260508234635 62 169 0.0 0.0 0.00 0.00 0.00 55 1012.1
20260508234131 62 169 0.0 0.0 0.00 0.00 0.00 53 1012.0
20260508233631 62 169 0.0 0.0 0.00 0.00 0.00 52 1012.0
20260508233128 63 169 0.0 0.0 0.00 0.00 0.00 51 1012.3
20260508232625 63 169 0.0 0.0 0.00 0.00 0.00 51 1012.1
20260508232121 63 169 0.0 0.0 0.00 0.00 0.00 49 1012.2
20260508231619 64 169 0.0 0.9 0.00 0.00 0.00 47 1012.1
20260508231116 64 169 0.0 0.0 0.00 0.00 0.00 46 1012.0
20260508230612 64 169 0.0 0.0 0.00 0.00 0.00 47 1012.2
20260508230109 65 169 0.0 0.0 0.00 0.00 0.00 43 1012.2
20260508225607 65 154 0.0 0.0 0.00 0.00 0.00 45 1012.2
20260508225103 66 143 0.0 0.0 0.00 0.00 0.00 39 1012.3
20260508224601 66 162 0.0 0.0 0.00 0.00 0.00 41 1012.2
20260508224058 67 143 0.0 0.0 0.00 0.00 0.00 39 1012.3
20260508223556 67 147 0.0 0.0 0.00 0.00 0.00 41 1012.4
20260508223052 68 168 0.9 0.9 0.00 0.00 0.00 39 1012.4
20260508222550 68 157 0.0 0.0 0.00 0.00 0.00 38 1012.5
20260508222047 68 126 0.0 0.9 0.00 0.00 0.00 39 1012.7
20260508221543 68 169 0.0 0.0 0.00 0.00 0.00 41 1012.5
20260508221039 69 169 0.0 0.0 0.00 0.00 0.00 43 1012.6
20260508220536 69 156 0.0 0.0 0.00 0.00 0.00 42 1012.6
20260508220032 69 169 0.0 0.9 0.00 0.00 0.00 35 1012.6
20260508215529 69 169 0.9 1.7 0.00 0.00 0.00 35 1012.6
20260508215026 69 123 0.0 0.9 0.00 0.00 0.00 37 1012.6
20260508214524 70 168 0.9 0.9 0.00 0.00 0.00 37 1012.5
20260508214020 72 160 0.0 0.0 0.00 0.00 0.00 34 1012.3
20260508213517 73 170 0.9 1.7 0.00 0.00 0.00 33 1012.4
20260508213013 73 171 0.0 0.0 0.00 0.00 0.00 32 1012.4
20260508212509 73 147 1.7 4.3 0.00 0.00 0.00 33 1012.4
20260508212006 74 142 0.0 0.9 0.00 0.00 0.00 34 1012.5
20260508211501 74 171 0.0 0.0 0.00 0.00 0.00 33 1012.3
20260508210958 74 139 0.0 0.0 0.00 0.00 0.00 33 1012.5
20260508210455 74 172 0.0 0.9 0.00 0.00 0.00 33 1012.3
20260508205951 74 171 0.0 0.0 0.00 0.00 0.00 36 1012.2
20260508205449 73 171 0.0 0.0 0.00 0.00 0.00 31 1012.2
20260508204944 73 96 0.9 0.9 0.00 0.00 0.00 31 1012.5
20260508204442 73 144 0.0 0.9 0.00 0.00 0.00 33 1012.4
20260508203937 75 113 0.9 1.7 0.00 0.00 0.00 32 1012.5
20260508203434 74 171 0.9 1.7 0.00 0.00 0.00 31 1012.6
20260508202929 75 140 0.0 0.0 0.00 0.00 0.00 34 1012.7
20260508202427 74 140 0.0 0.9 0.00 0.00 0.00 34 1012.7
20260508201924 74 139 0.9 1.7 0.00 0.00 0.00 32 1012.8
20260508201421 74 172 0.0 0.0 0.00 0.00 0.00 35 1012.5
20260508200917 74 171 0.0 0.0 0.00 0.00 0.00 31 1012.9
20260508200414 75 171 0.9 0.9 0.00 0.00 0.00 36 1012.8
20260508195910 74 171 0.0 0.0 0.00 0.00 0.00 33 1012.6
20260508195407 75 135 2.6 2.6 0.00 0.00 0.00 33 1012.9
20260508194903 74 170 0.9 0.9 0.00 0.00 0.00 33 1012.8
20260508194400 73 172 0.9 1.7 0.00 0.00 0.00 33 1013.4
20260508193857 72 172 0.9 0.9 0.00 0.00 0.00 33 1012.9
20260508193354 73 163 0.9 0.9 0.00 0.00 0.00 33 1013.1
20260508192850 74 129 0.9 1.7 0.00 0.00 0.00 32 1013.3
20260508192347 73 172 0.0 0.9 0.00 0.00 0.00 30 1013.3
20260508191844 72 172 0.0 0.0 0.00 0.00 0.00 34 1013.6
20260508191342 72 107 2.6 4.3 0.00 0.00 0.00 32 1013.8
20260508190838 71 116 0.9 0.9 0.00 0.00 0.00 32 1014.0
20260508190335 73 171 3.5 4.3 0.00 0.00 0.00 33 1014.1
20260508185831 73 162 0.0 0.0 0.00 0.00 0.00 31 1014.2
20260508185329 73 172 0.0 0.9 0.00 0.00 0.00 35 1014.3
20260508184826 73 172 0.0 0.9 0.00 0.00 0.00 32 1014.2
20260508184323 74 121 0.0 0.0 0.00 0.00 0.00 35 1014.4
20260508183820 72 171 0.0 0.0 0.00 0.00 0.00 31 1014.2
20260508183317 72 172 0.9 1.7 0.00 0.00 0.00 30 1014.4
20260508182812 72 171 0.0 0.0 0.00 0.00 0.00 30 1014.2
20260508182310 71 171 0.0 0.0 0.00 0.00 0.00 32 1014.6
20260508181805 71 172 0.9 0.9 0.00 0.00 0.00 37 1014.8
20260508181302 71 146 0.0 0.9 0.00 0.00 0.00 36 1014.9
20260508180759 71 142 0.9 0.9 0.00 0.00 0.00 36 1015.1
20260508180256 71 119 0.0 0.9 0.00 0.00 0.00 34 1014.9
20260508175752 70 172 0.0 0.9 0.00 0.00 0.00 36 1015.1
20260508175248 71 171 0.9 1.7 0.00 0.00 0.00 37 1015.2
20260508174747 71 172 0.0 0.0 0.00 0.00 0.00 36 1014.6
20260508174244 70 171 0.0 0.0 0.00 0.00 0.00 34 1014.9
20260508173740 69 170 0.9 0.9 0.00 0.00 0.00 31 1015.2
20260508173236 70 171 0.9 0.9 0.00 0.00 0.00 36 1015.1
20260508172733 68 171 0.9 0.9 0.00 0.00 0.00 45 1015.3
20260508172230 68 117 0.9 1.7 0.00 0.00 0.00 33 1015.4
20260508171727 68 170 2.6 4.3 0.00 0.00 0.00 35 1015.6
20260508171223 68 113 0.9 0.9 0.00 0.00 0.00 36 1015.8
20260508170720 69 101 2.6 2.6 0.00 0.00 0.00 34 1015.6
20260508170218 68 171 1.7 1.7 0.00 0.00 0.00 35 1015.8
20260508165714 68 171 0.9 0.9 0.00 0.00 0.00 41 1015.9
20260508165212 68 171 0.0 0.9 0.00 0.00 0.00 39 1015.9
20260508164708 67 152 2.6 2.6 0.00 0.00 0.00 33 1016.2
20260508164205 67 170 0.0 0.9 0.00 0.00 0.00 34 1016.3
20260508163703 67 116 1.7 2.6 0.00 0.00 0.00 36 1016.3
20260508163200 67 113 0.0 0.0 0.00 0.00 0.00 36 1016.6
20260508162655 66 116 0.9 0.9 0.00 0.00 0.00 36 1016.7
20260508162153 66 170 0.9 1.7 0.00 0.00 0.00 38 1016.5
20260508161649 66 167 0.0 0.0 0.00 0.00 0.00 41 1016.6
20260508161147 65 164 0.0 0.9 0.00 0.00 0.00 37 1016.6
20260508160645 65 130 1.7 1.7 0.00 0.00 0.00 36 1016.8
20260508160142 66 117 1.7 2.6 0.00 0.00 0.00 37 1016.8
20260508155639 65 170 0.9 0.9 0.00 0.00 0.00 44 1016.8
20260508155136 65 170 0.0 0.9 0.00 0.00 0.00 40 1016.9
20260508154633 65 156 0.0 0.0 0.00 0.00 0.00 41 1016.9
20260508154130 65 109 1.7 1.7 0.00 0.00 0.00 37 1017.0
20260508153627 66 191 0.0 0.0 0.00 0.00 0.00 43 1017.0
20260508153124 65 186 0.0 0.0 0.00 0.00 0.00 43 1017.4
20260508152620 64 186 0.0 0.0 0.00 0.00 0.00 42 1017.3
20260508152116 63 205 0.0 0.0 0.00 0.00 0.00 44 1017.0
20260508151613 64 228 1.7 2.6 0.00 0.00 0.00 42 1017.4
20260508151110 63 204 0.0 0.0 0.00 0.00 0.00 38 1017.5
20260508150607 63 237 0.9 0.9 0.00 0.00 0.00 42 1017.5
20260508145559 62 214 0.0 0.0 0.00 0.00 0.00 43 1017.5
20260508145056 62 185 0.0 0.0 0.00 0.00 0.00 40 1017.4
20260508144554 61 185 0.9 0.9 0.00 0.00 0.00 47 1017.4
20260508144051 61 200 0.9 0.9 0.00 0.00 0.00 42 1017.5
20260508143548 61 185 1.7 1.7 0.00 0.00 0.00 45 1017.5
20260508143045 62 237 0.9 1.7 0.00 0.00 0.00 45 1017.3
20260508142542 63 184 1.7 1.7 0.00 0.00 0.00 43 1017.4
20260508142038 62 185 0.0 0.0 0.00 0.00 0.00 48 1017.7
20260508141535 62 222 0.9 1.7 0.00 0.00 0.00 46 1017.5
20260508141032 63 208 0.0 0.9 0.00 0.00 0.00 46 1017.6
20260508140530 62 185 0.0 0.0 0.00 0.00 0.00 46 1017.4
20260508140026 62 185 0.0 0.0 0.00 0.00 0.00 46 1017.5
20260508135521 62 184 0.0 0.9 0.00 0.00 0.00 52 1017.8
20260508135018 61 217 0.0 0.9 0.00 0.00 0.00 53 1017.5
20260508134515 62 185 0.0 0.0 0.00 0.00 0.00 59 1017.6
20260508134012 61 184 0.0 0.0 0.00 0.00 0.00 65 1018.1
20260508133509 61 184 0.9 0.9 0.00 0.00 0.00 60 1017.8
20260508133006 60 185 0.0 0.0 0.00 0.00 0.00 64 1017.8
20260508132504 60 185 0.9 0.9 0.00 0.00 0.00 59 1017.6
20260508132000 61 184 0.0 0.0 0.00 0.00 0.00 67 1017.7
20260508131455 59 184 0.0 0.0 0.00 0.00 0.00 72 1017.6
20260508130952 57 184 0.0 0.0 0.00 0.00 0.00 72 1017.7
20260508130450 56 185 0.0 0.0 0.00 0.00 0.00 75 1017.5
20260508125945 55 185 0.0 0.0 0.00 0.00 0.00 81 1017.7
20260508125441 55 185 0.0 0.0 0.00 0.00 0.00 77 1017.4
20260508124939 53 184 0.0 0.0 0.00 0.00 0.00 83 1017.5
20260508124437 50 184 0.0 0.0 0.00 0.00 0.00 87 1017.2
20260508123934 48 184 0.0 0.0 0.00 0.00 0.00 94 1017.2
20260508123433 44 186 0.0 0.0 0.00 0.00 0.00 99 1017.4
20260508122929 44 186 0.0 0.0 0.00 0.00 0.00 99 1017.4
20260508122426 43 185 0.0 0.0 0.00 0.00 0.00 99 1017.4
20260508121923 42 185 0.0 0.0 0.00 0.00 0.00 99 1017.4
20260508121421 41 186 0.0 0.0 0.00 0.00 0.00 99 1017.2
20260508120918 40 186 0.0 0.0 0.00 0.00 0.00 99 1017.6
20260508120416 39 189 0.0 0.0 0.00 0.00 0.00 99 1017.3
20260508115914 39 189 0.0 0.0 0.00 0.00 0.00 99 1017.3
20260508115412 38 187 0.0 0.0 0.00 0.00 0.00 99 1017.3
20260508114907 37 203 0.0 0.0 0.00 0.00 0.00 99 1017.0
20260508114404 36 203 0.0 0.0 0.00 0.00 0.00 99 1016.9
20260508113901 36 203 0.0 0.0 0.00 0.00 0.00 99 1016.9
20260508113359 35 203 0.0 0.0 0.00 0.00 0.00 99 1017.0
20260508112856 35 203 0.0 0.0 0.00 0.00 0.00 99 1016.8
20260508112353 35 203 0.0 0.0 0.00 0.00 0.00 99 1016.7
20260508111849 34 203 0.0 0.0 0.00 0.00 0.00 99 1016.7
20260508111346 34 203 0.0 0.0 0.00 0.00 0.00 99 1016.6
20260508110843 34 203 0.0 0.0 0.00 0.00 0.00 99 1016.5
20260508110341 34 203 0.0 0.0 0.00 0.00 0.00 99 1016.5
20260508105841 34 203 0.0 0.0 0.00 0.00 0.00 99 1016.5
20260508105337 33 203 0.0 0.0 0.00 0.00 0.00 99 1016.4
20260508104834 33 203 0.0 0.0 0.00 0.00 0.00 99 1016.2
20260508104331 33 203 0.0 0.0 0.00 0.00 0.00 99 1016.4
20260508103829 34 203 0.0 0.0 0.00 0.00 0.00 99 1016.3
20260508103325 34 203 0.0 0.0 0.00 0.00 0.00 99 1016.5
20260508102823 34 203 0.0 0.0 0.00 0.00 0.00 99 1016.0
20260508102321 34 203 0.0 0.0 0.00 0.00 0.00 99 1016.2
20260508101818 34 203 0.0 0.0 0.00 0.00 0.00 99 1016.0
20260508101315 34 203 0.0 0.0 0.00 0.00 0.00 99 1016.2
20260508100813 34 203 0.0 0.0 0.00 0.00 0.00 99 1015.7
20260508100311 34 203 0.0 0.0 0.00 0.00 0.00 99 1016.1
20260508095806 34 203 0.0 0.0 0.00 0.00 0.00 99 1015.8
20260508095306 34 203 0.0 0.0 0.00 0.00 0.00 99 1015.9
20260508094801 34 203 0.0 0.0 0.00 0.00 0.00 99 1016.0
20260508094258 34 203 0.0 0.0 0.00 0.00 0.00 99 1016.1
20260508093755 35 203 0.0 0.0 0.00 0.00 0.00 99 1015.8
20260508093253 34 203 0.0 0.0 0.00 0.00 0.00 99 1015.9
20260508092749 34 203 0.0 0.0 0.00 0.00 0.00 99 1015.9
20260508092248 34 203 0.0 0.0 0.00 0.00 0.00 99 1016.0
20260508091745 34 203 0.0 0.0 0.00 0.00 0.00 99 1015.9
20260508091242 35 203 0.0 0.0 0.00 0.00 0.00 99 1015.7
20260508090740 35 203 0.0 0.0 0.00 0.00 0.00 99 1016.0
20260508090238 35 203 0.0 0.0 0.00 0.00 0.00 99 1015.8
20260508085733 35 203 0.0 0.0 0.00 0.00 0.00 99 1015.9
20260508085230 35 203 0.0 0.0 0.00 0.00 0.00 99 1015.7
20260508084726 35 203 0.0 0.0 0.00 0.00 0.00 99 1015.8
20260508084224 35 203 0.0 0.0 0.00 0.00 0.00 99 1015.8
20260508083721 35 205 0.0 0.0 0.00 0.00 0.00 99 1015.8
20260508083219 35 205 0.0 0.0 0.00 0.00 0.00 99 1015.6
20260508082713 35 205 0.0 0.0 0.00 0.00 0.00 99 1016.0
20260508082212 35 205 0.0 0.0 0.00 0.00 0.00 99 1015.9
20260508081709 36 205 0.0 0.0 0.00 0.00 0.00 99 1015.8
20260508081205 36 205 0.0 0.0 0.00 0.00 0.00 99 1015.7
20260508080702 36 205 0.0 0.0 0.00 0.00 0.00 99 1015.7
20260508080200 36 205 0.0 0.0 0.00 0.00 0.00 99 1015.8
20260508075657 36 205 0.0 0.0 0.00 0.00 0.00 99 1015.8
20260508075154 36 205 0.0 0.0 0.00 0.00 0.00 99 1015.7
20260508074651 36 205 0.0 0.0 0.00 0.00 0.00 99 1015.7
20260508074148 36 205 0.0 0.0 0.00 0.00 0.00 99 1015.9
20260508073645 36 205 0.0 0.0 0.00 0.00 0.00 99 1015.9
20260508073143 37 205 0.0 0.0 0.00 0.00 0.00 99 1015.9
20260508072638 37 205 0.0 0.0 0.00 0.00 0.00 99 1015.9
20260508072136 37 205 0.0 0.0 0.00 0.00 0.00 99 1015.9
20260508071633 37 205 0.0 0.0 0.00 0.00 0.00 99 1015.9
20260508071132 37 205 0.0 0.0 0.00 0.00 0.00 99 1015.7
20260508070629 37 205 0.0 0.0 0.00 0.00 0.00 99 1016.1
20260508070127 37 205 0.0 0.0 0.00 0.00 0.00 99 1015.8
20260508065624 37 205 0.0 0.0 0.00 0.00 0.00 99 1015.8
20260508065122 37 205 0.0 0.0 0.00 0.00 0.00 99 1015.8
20260508064619 37 205 0.0 0.0 0.00 0.00 0.00 99 1016.1
20260508064117 37 205 0.0 0.0 0.00 0.00 0.00 99 1016.1
20260508063614 37 205 0.0 0.0 0.00 0.00 0.00 99 1016.2
20260508063113 38 206 0.0 0.0 0.00 0.00 0.00 99 1016.3
20260508062610 38 206 0.0 0.0 0.00 0.00 0.00 99 1016.2
20260508062106 38 206 0.0 0.0 0.00 0.00 0.00 99 1016.1
20260508061604 38 206 0.0 0.0 0.00 0.00 0.00 99 1015.9
20260508061101 38 206 0.0 0.0 0.00 0.00 0.00 99 1016.3
20260508060557 38 206 0.0 0.0 0.00 0.00 0.00 99 1016.0
20260508060055 38 206 0.0 0.0 0.00 0.00 0.00 99 1016.4
20260508055550 38 206 0.0 0.0 0.00 0.00 0.00 99 1016.2
20260508055047 38 206 0.0 0.0 0.00 0.00 0.00 99 1016.3
20260508054544 38 206 0.0 0.0 0.00 0.00 0.00 99 1016.5
20260508054041 38 206 0.0 0.0 0.00 0.00 0.00 99 1016.2
20260508053538 38 206 0.0 0.0 0.00 0.00 0.00 99 1016.2
20260508053036 38 206 0.0 0.0 0.00 0.00 0.00 99 1016.2
20260508052533 39 206 0.0 0.0 0.00 0.00 0.00 99 1016.2
20260508052030 39 206 0.0 0.0 0.00 0.00 0.00 99 1016.0
20260508051526 39 206 0.0 0.0 0.00 0.00 0.00 99 1016.2
20260508051021 39 206 0.0 0.0 0.00 0.00 0.00 99 1016.2
20260508050518 39 206 0.0 0.0 0.00 0.00 0.00 99 1016.2
20260508050015 39 206 0.0 0.0 0.00 0.01 0.01 99 1016.1
20260508045512 39 206 0.0 0.0 0.00 0.01 0.01 99 1016.1
20260508045009 39 206 0.0 0.0 0.00 0.01 0.01 99 1016.2
20260508044506 39 206 0.0 0.0 0.00 0.01 0.01 99 1016.3
20260508044002 39 206 0.0 0.0 0.00 0.01 0.01 99 1016.3
20260508043459 39 206 0.0 0.0 0.00 0.01 0.01 99 1016.4
20260508042955 40 206 0.0 0.0 0.00 0.01 0.01 99 1016.4
20260508042453 40 206 0.0 0.0 0.00 0.01 0.01 99 1016.4
20260508041950 40 206 0.0 0.0 0.00 0.01 0.01 99 1016.6
20260508041446 40 206 0.0 0.0 0.00 0.01 0.01 99 1016.2
20260508040943 40 206 0.0 0.0 0.00 0.01 0.01 99 1016.3
20260508040440 40 206 0.0 0.0 0.00 0.01 0.01 99 1016.2
20260508035938 40 206 0.0 0.0 0.00 0.01 0.01 99 1016.0
20260508035435 41 206 0.0 0.0 0.00 0.01 0.01 99 1015.9
20260508034932 41 206 0.0 0.0 0.00 0.01 0.01 98 1016.0
20260508034429 41 206 0.0 0.0 0.00 0.01 0.01 98 1016.0
20260508033925 41 206 0.0 0.0 0.00 0.01 0.01 98 1015.8
20260508033424 41 206 0.0 0.0 0.00 0.01 0.01 98 1016.0
20260508032921 41 206 0.0 0.0 0.00 0.01 0.01 98 1016.2
20260508032418 41 206 0.0 0.0 0.00 0.01 0.01 98 1016.1
20260508031915 41 206 0.0 0.0 0.00 0.01 0.01 97 1016.0
20260508031412 42 206 0.0 0.0 0.00 0.01 0.01 97 1016.1
20260508030908 42 206 0.0 0.0 0.00 0.01 0.01 97 1016.0
20260508030405 42 206 0.0 0.0 0.00 0.01 0.01 97 1016.2
20260508025902 42 206 0.0 0.0 0.00 0.01 0.01 97 1016.0
20260508025359 42 206 0.0 0.0 0.00 0.01 0.01 97 1016.0
20260508024856 42 206 0.0 0.0 0.00 0.01 0.01 97 1015.8
20260508024352 42 206 0.0 0.0 0.00 0.01 0.01 96 1015.7
20260508023849 43 206 0.0 0.0 0.00 0.01 0.01 96 1016.0
20260508023346 43 206 0.0 0.0 0.00 0.01 0.01 96 1015.7
20260508022843 43 206 0.0 0.0 0.00 0.01 0.01 95 1016.1